Regional Weather Roundup
Issued by NWS

Home | Current Version | Previous Version | Graphics & Text | Print | Product List | Glossary On
Versions: 1 2 3 4 5 6 7 8 9 10 11 12 13 14 15 16 17 18 19 20 21 22 23 24 25 26 27 28 29 30 31 32 33 34 35 36 37 38 39 40 41 42 43 44 45 46 47 48 49 50
000
ASUS43 KBIS 032310
RWRND

NORTH DAKOTA REGIONAL WEATHER ROUNDUP
NATIONAL WEATHER SERVICE BISMARCK ND
600 PM CDT MON AUG 03 2015

NOTE: "FAIR" INDICATES FEW OR NO CLOUDS BELOW 12,000 FEET WITH NO
SIGNIFICANT WEATHER AND/OR OBSTRUCTIONS TO VISIBILITY.


NDZ001>003-009>011-017-040000-
NORTHWEST NORTH DAKOTA

CITY           SKY/WX    TMP DP  RH WIND       PRES   REMARKS
WILLISTON      SUNNY     85  41  21 MISG      29.95F
MINOT          SUNNY     79  44  28 NW8G16    29.96F
MINOT AFB      SUNNY     82  45  27 NW7       29.95F
$$

NDZ018>021-031>035-040>046-040000-
SOUTHWEST NORTH DAKOTA

CITY           SKY/WX    TMP DP  RH WIND       PRES   REMARKS
BISMARCK       SUNNY     81  48  31 CALM      29.96F
DICKINSON      MOSUNNY   82  49  31 E7        29.96F
GARRISON         N/A     79  50  36 VRB5      29.97F
HETTINGER ARPT SUNNY     84  49  29 E6        29.98F
$$

NDZ004>008-012>016-024-026-027-054-040000-
NORTHEAST NORTH DAKOTA

CITY           SKY/WX    TMP DP  RH WIND       PRES   REMARKS
GRAND FORKS    MOSUNNY   78  45  30 N14       29.91S
GRND FRKS AFB  SUNNY     77  49  37 N12       29.92F
DEVILS LAKE    SUNNY     77  39  25 NW14      29.94F
$$

NDZ022-023-025-028>030-036>039-047>053-040000-
SOUTHEAST NORTH DAKOTA

CITY           SKY/WX    TMP DP  RH WIND       PRES   REMARKS
FARGO          SUNNY     79  46  31 NW10      29.92S
JAMESTOWN      SUNNY     77  44  30 N7        29.95F
$$



USA.gov is the U.S. government's official web portal to all federal, state and local government web resources and services.